Regional Weather Roundup
Issued by NWS

Home | Current Version | Previous Version | Text Only | Print | Product List | Glossary On
Versions: 1 2 3 4 5 6 7 8 9 10 11 12 13 14 15 16 17 18 19 20 21 22 23 24 25 26 27 28 29 30 31 32 33 34 35 36 37 38 39 40 41 42 43 44 45 46 47 48 49 50
000
ASUS43 KDTX 250010
RWRMI
MICHIGAN HOURLY REGIONAL WEATHER ROUNDUP
NATIONAL WEATHER SERVICE DETROIT/PONTIAC MI
700 PM EST FRI NOV 24 2017

NOTE: "FAIR" INDICATES FEW OR NO CLOUDS BELOW 12,000 FEET WITH NO
SIGNIFICANT WEATHER AND/OR OBSTRUCTION TO VISIBILITY.

MIZ047>049-052>055-059>063-066>070-074>076-081>083-250100-
SOUTHEAST LOWER MICHIGAN

CITY           SKY/WX    TMP DP  RH WIND       PRES   REMARKS
ADRIAN         PTCLDY    48  34  58 S17       29.62F
6HR MIN TEMP:  48; 6HR MAX TEMP:  53;

ALMA           CLEAR     50  34  54 S14G26    29.45F
ANN ARBOR      CLOUDY    48  34  58 S15G25    29.60F
BAD AXE        PTCLDY    48  33  55 S22G28    29.47F
6HR MIN TEMP:  48; 6HR MAX TEMP:  54;

CARO           CLOUDY    51  34  51 S15G26    29.47F
DETROIT CITY   CLEAR     50  33  52 S16G28    29.62F
6HR MIN TEMP:  48; 6HR MAX TEMP:  52;

DETROIT        MOCLDY    50  33  52 S18       29.63F
6HR MIN TEMP:  49; 6HR MAX TEMP:  54;

FLINT          PTCLDY    51  33  50 S16G25    29.52F
6HR MIN TEMP:  50; 6HR MAX TEMP:  56;

GROSSE ILE     CLEAR     46  35  65 S15       29.63F
6HR MIN TEMP:  43; 6HR MAX TEMP:  51;

HILLSDALE      PTCLDY    50  32  50 S15G24    29.58F
HOWELL         CLOUDY    50  33  52 S14G24    29.55F
6HR MIN TEMP:  49; 6HR MAX TEMP:  55;


CITY           SKY/WX    TMP DP  RH WIND       PRES   REMARKS
JACKSON        PTCLDY    51  32  48 S20G30    29.57F
6HR MIN TEMP:  51; 6HR MAX TEMP:  56;

LAMBERTVILLE   CLEAR     51  32  48 S15G21    29.64F
6HR MIN TEMP:  51; 6HR MAX TEMP:  56;

LANSING        CLEAR     52  34  50 S18G26    29.50F
6HR MIN TEMP:  51; 6HR MAX TEMP:  57;

LAPEER         FAIR      50  33  50 S18G25    29.54F
6HR MIN TEMP:  49; 6HR MAX TEMP:  55;

MASON          CLEAR     51  34  52 S7G16     29.54F
MONROE         CLEAR     50  31  48 S14G22    29.63F
6HR MIN TEMP:  50; 6HR MAX TEMP:  55;

MT. CLEMENS    MOCLDY    49  35  57 S15G26    29.58F
6HR MIN TEMP:  49; 6HR MAX TEMP:  52;

PONTIAC        MOCLDY    50  34  54 S15G22    29.57F
6HR MIN TEMP:  48; 6HR MAX TEMP:  52;

PORT HOPE        N/A     50  32  50 S12G26    29.43F
6HR MIN TEMP:  48; 6HR MAX TEMP:  55;

PORT HURON     PTCLDY    46  32  57 S17G23    29.59F
TRI CITIES     CLEAR     51  35  54 S17       29.44F
6HR MIN TEMP:  51; 6HR MAX TEMP:  58;

MIDLAND        FAIR      53  34  48 S13G24    29.42F
6HR MIN TEMP:  50; 6HR MAX TEMP:  58;

TROY           PTCLDY    53  32  45 S14G22    29.61F
SAGINAW HB     MOCLDY    50  32  50 S18G28    29.45F
$$
MIZ043>046-050>051-056>058-064>065-071>073-077>080-250100-
SOUTHWEST LOWER MICHIGAN

CITY           SKY/WX    TMP DP  RH WIND       PRES   REMARKS
BATTLE CREEK   CLEAR     51  34  52 S22G32    29.52F
6HR MIN TEMP:  51; 6HR MAX TEMP:  55;

BENTON HARBOR  CLEAR     55  34  45 S16G28    29.49S
6HR MIN TEMP:  54; 6HR MAX TEMP:  59;

BIG RAPIDS     CLEAR     54  32  44 SW10G22   29.43R
6HR MIN TEMP:  51; 6HR MAX TEMP:  59;

COLDWATER      PTCLDY    51  31  46 S12G21    29.57F
6HR MIN TEMP:  51; 6HR MAX TEMP:  56;

FREMONT        FAIR      57  37  46 SW20G38   29.43R
6HR MIN TEMP:  52; 6HR MAX TEMP:  58;

HOLLAND        CLEAR     54  36  50 S18G26    29.47R
6HR MIN TEMP:  53; 6HR MAX TEMP:  60;

GRAND RAPIDS   PTCLDY    52  36  54 S18G28    29.45F
6HR MIN TEMP:  52; 6HR MAX TEMP:  58;

IONIA          FAIR      52  33  49 S17G26    29.45F
6HR MIN TEMP:  52; 6HR MAX TEMP:  57;

KALAMAZOO      CLEAR     51  33  50 S20       29.52F
6HR MIN TEMP:  50; 6HR MAX TEMP:  56;

LUDINGTON      CLEAR     53  39  60 S22G35    29.40S
6HR MIN TEMP:  52; 6HR MAX TEMP:  55;

MARSHALL       CLEAR     50  32  50 S14G21    29.54F
6HR MIN TEMP:  50; 6HR MAX TEMP:  55;

MOUNT PLEASANT CLEAR     52  33  47 S14G21    29.41F
6HR MIN TEMP:  51; 6HR MAX TEMP:  60;

MUSKEGON       PTCLDY    55  38  52 S20G30    29.45R
6HR MIN TEMP:  51; 6HR MAX TEMP:  59;

SOUTH HAVEN    CLEAR     56  34  43 S14G22    29.48R
$$
MIZ016>042-250100-
NORTHERN LOWER MICHIGAN

CITY           SKY/WX    TMP DP  RH WIND       PRES   REMARKS
ALPENA         MOCLDY    53  36  52 SW12      29.32F
6HR MIN TEMP:  50; 6HR MAX TEMP:  57;

BEAVER ISLAND  CLOUDY    49  43  79 SW17G29   29.31S
6HR MIN TEMP:  49; 6HR MAX TEMP:  53;

BELLAIRE       CLOUDY    58  40  51 SW12G26   29.35R
6HR MIN TEMP:  58; 6HR MAX TEMP:  63;

CADILLAC       CLEAR     52  34  51 SW15G22   29.39R
CHARLEVOIX     CLOUDY    56  38  51 SW13G23   29.35R
6HR MIN TEMP:  56; 6HR MAX TEMP:  62;

FRANKFORT      PTCLDY    54  40  59 S17G33    29.37R
GAYLORD        CLOUDY    51  35  54 SW13G25   29.34R
6HR MIN TEMP:  51; 6HR MAX TEMP:  59; 6HR PCP: TRACE;

GRAYLING       CLOUDY    53  33  46 SW8       29.38R
6HR MIN TEMP:  51; 6HR MAX TEMP:  57;

HARBOR SPRINGS LGT RAIN  54  41  61 SW12      29.32R
HOUGHTON LAKE  PTCLDY    51  33  50 SW9G18    29.40R
6HR MIN TEMP:  51; 6HR MAX TEMP:  55;

MANISTEE       CLOUDY    56  39  53 S18G32    29.38R
OSCODA         MOCLDY    50  32  50 S22G36    29.37F
6HR MIN TEMP:  44; 6HR MAX TEMP:  52;

ROGERS CITY    MOCLDY    55  36  50 SW14      29.32R
TRAVERSE CITY  CLOUDY    57  36  45 SW14G24   29.33R
6HR MIN TEMP:  57; 6HR MAX TEMP:  64;

$$
MIZ007>008-015-250100-
EASTERN UPPER MICHIGAN

CITY           SKY/WX    TMP DP  RH WIND       PRES   REMARKS
KINROSS        LGT RAIN  48  42  80 W18       29.30R
6HR MIN TEMP:  48; 6HR MAX TEMP:  52;

MACKINAC ISLAN CLOUDY    48  40  76 SW14G21   29.30R
6HR MIN TEMP:  48; 6HR MAX TEMP:  58;

NEWBERRY       CLOUDY    44  43  97 SW6       29.29S
6HR MIN TEMP:  44; 6HR MAX TEMP:  47;

S. S. MARIE    RAIN      47  43  86 SW13G21   29.29R FOG
6HR MIN TEMP:  46; 6HR MAX TEMP:  51; 6HR PCP:  0.09;

MUNISING         N/A     44  42  93 NW8       29.31R
6HR MIN TEMP:  43; 6HR MAX TEMP:  50; 6HR PCP:  0.02;

$$
MIZ004>006-011>014-085-250100-
CENTRAL UPPER MICHIGAN

CITY           SKY/WX    TMP DP  RH WIND       PRES   REMARKS
MANISTIQUE     CLOUDY    43  38  81 S3        29.29S
6HR MIN TEMP:  43; 6HR MAX TEMP:  46;

ESCANABA       CLOUDY    46  42  86 CALM      29.29F
6HR MIN TEMP:  46; 6HR MAX TEMP:  52; 6HR PCP: TRACE;

MENOMINEE      CLOUDY    55  39  54 SW3       29.32F
6HR MIN TEMP:  52; 6HR MAX TEMP:  57;

SAWYER-GWINN   LGT RAIN  46  43  87 NW15      29.30R
$$
MIZ001>003-009>011-084-250100-
WESTERN UPPER MICHIGAN

CITY           SKY/WX    TMP DP  RH WIND       PRES   REMARKS
IRON MOUNTAIN  CLOUDY    53  39  59 NW14      29.31R
6HR MIN TEMP:  52; 6HR MAX TEMP:  58; 6HR PCP: TRACE;

HOUGHTON       LGT RAIN  41  38  89 W12       29.30S
6HR MIN TEMP:  40; 6HR MAX TEMP:  47; 6HR PCP:  0.15;

COPPER HARBOR    N/A     43  40  89 VRB6      29.29S
6HR MIN TEMP:  43; 6HR MAX TEMP:  51; 6HR PCP:  0.15;

IRONWOOD       CLOUDY    40  39  97 W10       29.41R WCI  33
6HR MIN TEMP:  39; 6HR MAX TEMP:  48; 6HR PCP:  0.08;

$$

ABBREVIATIONS USED IN REMARKS
   TC - TEMPERATURE IN CELSIUS
  WCI - WIND CHILL INDEX
   HX - HEAT INDEX
  VSB - VISIBILITY





USA.gov is the U.S. government's official web portal to all federal, state and local government web resources and services.